星链-2687 (STARLINK-2687 )

导读

STARLINK-2687是美国太空探索技术公司星链(Starlink)卫星互联网项目中的一颗卫星,于2021年5月9日发射入轨,属于星链星座组网的组成部分。星链旨在全球范围内提供高速互联网接入服务,该卫星承担着为地面用户传输网络信号的任务,助力低轨卫星星座的全球覆盖布局。

基本信息
目录编号:
48466
目录名称:
STARLINK-2687
国际标识:
2021-040AQ
轨道中心:
EARTH
卫星名称:
星链-2687
卫星全名:
星链-2687 (STARLINK-2687 )
卫星状态:
在轨 (已飞行1866 天)
发射日期:
2021-05-09 UTC
国别 :
美国 (US)
星等 :
--
轨道信息
数据来源 国际轨道数据
星历时间: 2026-06-18T11:58:18+0800
10小时前
查看轨道信息
半长轴: 6848.872km
偏心率: 0.0001392
轨道倾角: 53.161°
近地点辐角 67.476°
升交点赤经 83.683°
平近点角 292.639°
近地点: 469.781km
远地点: 471.689km
周期: 94.013分钟
每日圈数: 15.317019
详细信息
固有亮度:
5
最大亮度:
2.5
卫星平台:
Starlink V1.0
覆盖范围:
全球
运营商:
太空探索技术公司
运营商所在国:
美国
制造商(研发单位):
太空探索技术公司
制造商所在国:
美国
使用方式:
暂无
卫星简介
星链(Starlink)计划是由太空探索技术公司(SpaceX)提出的一个巨型低轨卫星互联网星座项目,计划在2019年至2024年间在太空搭建由约1.2万颗卫星组成的“星链”网络,其中1584颗将部署在地球上空550千米处的近地轨道,并从2020年开始工作。该卫星仍在工作。
2D轨道图
3D轨道图
轨道高度分析图
轨道倾角分析图
轨道综合分析图
查看轨道综合分析图